User: anonymous   Login
Location: Unspecified
(0.0000°N, 0.0000°E)
Time: 15:41:22
(UTC+00:00)
Language:

Optus B1 - Orbit

View from above orbital plane
View from above orbital plane
View from above satellite
View from above satellite

Ground track
Ground track

The orbit data is extracted from the following two-line orbital elements,

1 22087U 92054A   14302.85336523 -.00000209  00000-0  00000+0 0    97
2 22087 007.1396 054.3094 0007964 050.5007 354.1870 00.99204643 92551
Epoch (UTC): 29 October 2014 20:28:50
Eccentricity: 0.0007964
inclination: 7.1396°
perigee height: 36054 km
apogee height: 36122 km
right ascension of ascending node: 54.3094°
argument of perigee: 50.5007°
revolutions per day: 0.99204643
mean anomaly at epoch: 354.1870°
orbit number at epoch: 9255

The dashed part of the orbit path shows where the satellite is in the earth's shadow,  

DLR